When you browse on this site, cookies collect data to enhance your experience and personalize the content and advertising you see.
Visit our Privacy Policy to learn more. By continuing to use the site, you agree to this use of cookies and data.
  • In Hungary
  • List of Countries
  • For 7 days
  • Water Temperature
  • Satellite Maps
  • Weather Map
  • News
  • Weather Widgets
  • user-avatar
    Login

    Hourly Weather Custoias

    Today, 23 July, Tuesday

    Time Temperature Precipitation Wind Pressure Humidity
    00:00 +25°C° 0 mm 1 mps 714 mmHg 53%
    01:00 +24°C° 0.2 mm 1 mps 714 mmHg 56%
    02:00 +22°C° 0.2 mm 0 mps 713 mmHg 58%
    03:00 +21°C° 0.2 mm 0 mps 713 mmHg 61%
    04:00 +21°C° 0.5 mm 0 mps 713 mmHg 63%
    05:00 +21°C° 0.5 mm 0 mps 713 mmHg 64%
    06:00 +21°C° 0.5 mm 0 mps 713 mmHg 66%
    07:00 +23°C° 0 mm 0 mps 714 mmHg 58%
    08:00 +25°C° 0 mm 0 mps 714 mmHg 51%
    09:00 +29°C° 0 mm 1 mps 714 mmHg 44%
    10:00 +32°C° 0 mm 1 mps 714 mmHg 38%
    11:00 +35°C° 0 mm 2 mps 714 mmHg 32%
    12:00 +37°C° 0 mm 2 mps 715 mmHg 27%
    13:00 +37°C° 0 mm 3 mps 714 mmHg 26%
    14:00 +37°C° 0 mm 3 mps 714 mmHg 25%
    15:00 +37°C° 0 mm 4 mps 714 mmHg 24%
    16:00 +36°C° 0 mm 4 mps 714 mmHg 28%
    17:00 +35°C° 0 mm 5 mps 713 mmHg 31%
    18:00 +33°C° 0 mm 5 mps 713 mmHg 34%
    19:00 +30°C° 0 mm 4 mps 713 mmHg 39%
    20:00 +28°C° 0 mm 3 mps 713 mmHg 44%
    21:00 +25°C° 0 mm 1 mps 713 mmHg 49%
    22:00 +24°C° 0 mm 1 mps 713 mmHg 50%
    23:00 +24°C° 0 mm 1 mps 714 mmHg 52%

    Tomorrow, 24 July, Wednesday

    Time Temperature Precipitation Wind Pressure Humidity
    00:00 +23°C° 0 mm 1 mps 714 mmHg 54%
    01:00 +22°C° 0 mm 1 mps 713 mmHg 55%
    02:00 +22°C° 0 mm 1 mps 713 mmHg 55%
    03:00 +19°C° 0 mm 0 mps 712 mmHg 55%
    04:00 +19°C° 0 mm 0 mps 712 mmHg 56%
    05:00 +19°C° 0 mm 0 mps 712 mmHg 57%
    06:00 +19°C° 0 mm 0 mps 712 mmHg 57%
    07:00 +22°C° 0 mm 0 mps 713 mmHg 51%
    08:00 +24°C° 0 mm 0 mps 713 mmHg 44%
    09:00 +27°C° 0 mm 0 mps 713 mmHg 38%
    10:00 +31°C° 0 mm 1 mps 713 mmHg 33%
    11:00 +34°C° 0 mm 2 mps 713 mmHg 28%
    12:00 +36°C° 0 mm 3 mps 713 mmHg 23%
    13:00 +37°C° 0 mm 4 mps 713 mmHg 21%
    14:00 +37°C° 0 mm 4 mps 713 mmHg 20%
    15:00 +39°C° 0 mm 5 mps 712 mmHg 18%
    16:00 +38°C° 0 mm 6 mps 712 mmHg 21%
    17:00 +35°C° 0 mm 6 mps 712 mmHg 23%
    18:00 +34°C° 0 mm 6 mps 712 mmHg 25%
    19:00 +30°C° 0 mm 5 mps 712 mmHg 31%
    20:00 +27°C° 0 mm 3 mps 712 mmHg 36%
    21:00 +24°C° 0 mm 2 mps 712 mmHg 41%
    22:00 +23°C° 0 mm 1 mps 712 mmHg 46%
    23:00 +22°C° 0 mm 1 mps 711 mmHg 50%

    Day after tomorrow, 25 July, Thursday

    Time Temperature Precipitation Wind Pressure Humidity
    00:00 +21°C° 0 mm 1 mps 711 mmHg 54%
    01:00 +20°C° 0 mm 1 mps 711 mmHg 57%
    02:00 +20°C° 0 mm 1 mps 711 mmHg 60%
    03:00 +19°C° 0 mm 1 mps 711 mmHg 63%
    04:00 +19°C° 0 mm 1 mps 711 mmHg 65%
    05:00 +19°C° 0 mm 1 mps 711 mmHg 66%
    06:00 +19°C° 0 mm 1 mps 711 mmHg 68%
    07:00 +22°C° 0 mm 1 mps 712 mmHg 61%
    08:00 +24°C° 0 mm 2 mps 712 mmHg 54%
    09:00 +26°C° 0 mm 2 mps 713 mmHg 47%
    10:00 +28°C° 0 mm 3 mps 713 mmHg 41%
    11:00 +29°C° 0 mm 3 mps 713 mmHg 36%
    12:00 +32°C° 0 mm 4 mps 713 mmHg 30%
    13:00 +32°C° 0 mm 5 mps 713 mmHg 29%
    14:00 +33°C° 0 mm 5 mps 712 mmHg 28%
    15:00 +33°C° 0 mm 6 mps 712 mmHg 27%
    16:00 +32°C° 0 mm 6 mps 712 mmHg 34%
    17:00 +29°C° 0 mm 6 mps 712 mmHg 41%
    18:00 +27°C° 0 mm 6 mps 712 mmHg 49%
    19:00 +26°C° 0 mm 5 mps 712 mmHg 57%
    20:00 +23°C° 0 mm 4 mps 712 mmHg 65%
    21:00 +21°C° 0 mm 3 mps 712 mmHg 73%
    22:00 +20°C° 0 mm 2 mps 712 mmHg 76%
    23:00 +19°C° 0 mm 2 mps 712 mmHg 79%

    26 July, Friday

    Time Temperature Precipitation Wind Pressure Humidity
    00:00 +18°C° 0 mm 2 mps 712 mmHg 82%
    01:00 +17°C° 0 mm 2 mps 712 mmHg 83%
    02:00 +17°C° 0 mm 2 mps 712 mmHg 83%
    03:00 +16°C° 0 mm 2 mps 712 mmHg 84%
    04:00 +15°C° 0 mm 1 mps 712 mmHg 85%
    05:00 +15°C° 0 mm 1 mps 712 mmHg 85%
    06:00 +14°C° 0 mm 1 mps 712 mmHg 86%
    07:00 +16°C° 0 mm 2 mps 712 mmHg 75%
    08:00 +18°C° 0 mm 3 mps 713 mmHg 64%
    09:00 +20°C° 0 mm 3 mps 713 mmHg 52%
    10:00 +22°C° 0 mm 4 mps 713 mmHg 48%
    11:00 +23°C° 0 mm 4 mps 713 mmHg 43%
    12:00 +26°C° 0 mm 5 mps 713 mmHg 38%
    13:00 +26°C° 0 mm 5 mps 713 mmHg 39%
    14:00 +26°C° 0 mm 6 mps 713 mmHg 39%
    15:00 +27°C° 0 mm 6 mps 712 mmHg 39%
    16:00 +26°C° 0 mm 7 mps 712 mmHg 41%
    17:00 +24°C° 0 mm 7 mps 712 mmHg 43%
    18:00 +23°C° 0 mm 7 mps 712 mmHg 44%
    19:00 +21°C° 0 mm 5 mps 712 mmHg 51%
    20:00 +19°C° 0 mm 4 mps 712 mmHg 57%
    21:00 +17°C° 0 mm 2 mps 713 mmHg 64%
    22:00 +16°C° 0 mm 2 mps 713 mmHg 67%
    23:00 +15°C° 0 mm 2 mps 712 mmHg 71%

    27 July, Saturday

    Time Temperature Precipitation Wind Pressure Humidity
    00:00 +14°C° 0 mm 1 mps 712 mmHg 74%
    01:00 +14°C° 0 mm 1 mps 712 mmHg 77%
    02:00 +13°C° 0 mm 1 mps 712 mmHg 79%
    03:00 +13°C° 0 mm 1 mps 712 mmHg 81%
    04:00 +13°C° 0 mm 1 mps 712 mmHg 81%
    05:00 +13°C° 0 mm 1 mps 712 mmHg 81%
    06:00 +13°C° 0 mm 1 mps 712 mmHg 81%
    07:00 +15°C° 0 mm 1 mps 712 mmHg 70%
    08:00 +18°C° 0 mm 1 mps 712 mmHg 60%
    09:00 +20°C° 0 mm 1 mps 712 mmHg 49%
    10:00 +21°C° 0 mm 2 mps 712 mmHg 48%
    11:00 +23°C° 0 mm 2 mps 712 mmHg 47%
    12:00 +25°C° 0 mm 3 mps 712 mmHg 45%
    13:00 +25°C° 0 mm 4 mps 712 mmHg 47%
    14:00 +25°C° 0 mm 4 mps 711 mmHg 48%
    15:00 +26°C° 0 mm 5 mps 711 mmHg 50%
    16:00 +25°C° 0 mm 5 mps 711 mmHg 52%
    17:00 +23°C° 0 mm 5 mps 711 mmHg 54%
    18:00 +23°C° 0 mm 4 mps 711 mmHg 56%
    19:00 +21°C° 0 mm 3 mps 711 mmHg 64%
    20:00 +19°C° 0 mm 2 mps 711 mmHg 72%
    21:00 +19°C° 0 mm 1 mps 711 mmHg 80%
    22:00 +18°C° 0 mm 1 mps 711 mmHg 83%
    23:00 +16°C° 0 mm 1 mps 711 mmHg 86%

    28 July, Sunday

    Time Temperature Precipitation Wind Pressure Humidity
    00:00 +16°C° 0 mm 1 mps 711 mmHg 89%
    01:00 +15°C° 0 mm 1 mps 710 mmHg 90%
    02:00 +15°C° 0 mm 1 mps 710 mmHg 91%
    03:00 +15°C° 0 mm 1 mps 710 mmHg 92%
    04:00 +15°C° 0 mm 1 mps 710 mmHg 91%
    05:00 +14°C° 0 mm 1 mps 710 mmHg 89%
    06:00 +14°C° 0 mm 1 mps 710 mmHg 88%
    07:00 +16°C° 0 mm 2 mps 711 mmHg 76%
    08:00 +19°C° 0 mm 2 mps 711 mmHg 64%
    09:00 +21°C° 0 mm 3 mps 711 mmHg 52%
    10:00 +24°C° 0 mm 3 mps 711 mmHg 46%
    11:00 +26°C° 0 mm 3 mps 711 mmHg 40%
    12:00 +28°C° 0 mm 2 mps 711 mmHg 34%
    13:00 +29°C° 0 mm 2 mps 711 mmHg 30%
    14:00 +30°C° 0 mm 2 mps 711 mmHg 27%
    15:00 +31°C° 0 mm 2 mps 711 mmHg 24%
    16:00 +30°C° 0 mm 2 mps 710 mmHg 24%
    17:00 +30°C° 0 mm 2 mps 710 mmHg 24%
    18:00 +30°C° 0 mm 2 mps 710 mmHg 24%
    19:00 +27°C° 0 mm 2 mps 710 mmHg 32%
    20:00 +25°C° 0 mm 2 mps 711 mmHg 41%
    21:00 +21°C° 0 mm 2 mps 711 mmHg 49%
    22:00 +21°C° 0 mm 1 mps 711 mmHg 53%
    23:00 +20°C° 0 mm 1 mps 711 mmHg 57%
    Show more